Regional Weather Roundup
Issued by NWS Sterling, VA

Home | Current Version | Previous Version | Graphics & Text | Print | Product List | Glossary On
Versions: 1 2 3 4 5 6 7 8 9 10 11 12 13 14 15 16 17 18 19 20 21 22 23 24 25 26
000
ASUS41 KLWX 162311
RWRLWX

REGIONAL WEATHER ROUNDUP
NATIONAL WEATHER SERVICE BALTIMORE MD/WASHINGTON DC
600 PM EST FRI FEB 16 2018

Note: "FAIR" indicates few or no clouds below 12,000 feet
with no significant weather and/or obstructions to visibility.
 TC=TEMPERATURE CELSIUS

 * =Non NWS site. Station does not report precipitation (e.g. rain,
    snow, etc.), thunder, or fog.

DCZ001-MDZ009-015-VAZ040>042-051-053>054-170000-
WASHINGTON METRO

CITY           SKY/WX    TMP DP  RH WIND       PRES   REMARKS
WASHINGTON NAT CLOUDY    54  41  61 NW20G25   29.96R
DULLES         CLOUDY    50  40  68 N17G25    29.97R
ANDREWS AFB    MOCLDY    53  40  61 NW24G31   29.92R
FT BELVOIR     MOCLDY    54  41  60 NW20      29.95R
QUANTICO       FAIR      56  43  61 N14G21    29.96R
COLLEGE PARK*  FAIR      52  38  58 NW14      29.95R
LEESBURG*      FAIR      50  39  66 NW23G33   29.99R
MANASSAS*      CLOUDY    51  42  71 N22G29    29.98R
GAITHERSBURG*  FAIR      47  35  63 NW18G29   29.98R

$$

MDZ006>007-011-014-170000-
BALTIMORE METRO

CITY           SKY/WX    TMP DP  RH WIND       PRES   REMARKS
BWI AIRPORT    CLOUDY    52  38  58 NW18G25   29.94R
MD SCIENCE CTR   N/A     53  36  52 MISG      29.92R
MARTIN STATE   CLOUDY    54  45  71 W18G29    29.94R
ANNAPOLIS      MOCLDY    55  42  61 NW9G23    29.92R
FORT MEADE*    MOCLDY    52  39  62 NW9G16    29.97R

$$

MDZ012-015-019>023-170000-
MARYLAND EASTERN SHORE

CITY           SKY/WX    TMP DP  RH WIND       PRES   REMARKS
OCEAN CITY     CLOUDY    54  52  93 N8        29.89R
SALISBURY      CLOUDY    54  50  86 NW10      29.90R
BAY BRIDGE AP* CLOUDY    48  41  76 NW9       29.94R
CAMBRIDGE*     CLOUDY    54  45  71 NW9G16    29.92R
EASTON*        CLOUDY    54  45  71 N10       29.94R

$$

MDZ017>025-170000-
SOUTHERN MARYLAND

CITY           SKY/WX    TMP DP  RH WIND       PRES   REMARKS
PATUXENT RIVER MOCLDY    54  44  69 NW14      29.91R
ST INIGOES     CLOUDY    56  43  61 VRB6      29.91R
LEONARDTOWN*   CLOUDY    54  43  66 NW6       29.93R

$$

MDZ003>005-170000-
NORTH CENTRAL MARYLAND

CITY           SKY/WX    TMP DP  RH WIND       PRES   REMARKS
FREDERICK*     PTCLDY    48  32  53 N13       30.02R
HAGERSTOWN APT FAIR      43  32  65 NW20      30.01R WCI  34
WESTMINSTER*   FAIR      46  36  66 NW14      29.97R

$$

MDZ501>502-170000-
WESTERN MARYLAND

CITY           SKY/WX    TMP DP  RH WIND       PRES   REMARKS
OAKLAND*       CLOUDY    28  28 100 NW9       30.02R WCI  20
CUMBERLAND*    CLOUDY    41  30  65 NW13G29   30.12R WCI  34

$$

VAZ025>031-170000-
SHENANDOAH VALLEY

CITY           SKY/WX    TMP DP  RH WIND       PRES   REMARKS
WINCHESTER*    FAIR      43  34  70 NW15G25   30.03R
FRONT ROYAL*   CLOUDY    46  37  71 NW5       30.00R
LURAY*         MOCLDY    50  37  62 NW18G28   30.00R
NEW MARKET*    CLOUDY    47  38  69 N9G20     30.00R
STAUNTON*      MOCLDY    52  37  56 NW8       29.99R
WAYNESBORO*    CLOUDY    53  37  55 W8        29.96R

$$

WVZ021-048>050-054>055-170000-
EASTERN WEST VIRGINIA PANHANDLE

CITY           SKY/WX    TMP DP  RH WIND       PRES   REMARKS
MARTINSBURG    FAIR      43  30  60 NW21G32   30.02R WCI  34
PETERSBURG*    MOCLDY    42  33  70 NW13G20   30.06R WCI  35

$$

VAZ036>039-050-170000-
CENTRAL FOOTHILLS

CITY           SKY/WX    TMP DP  RH WIND       PRES   REMARKS
CHARLOTTESVILL FAIR      59  38  45 NW8       29.94R
CULPEPER*      FAIR      55  41  59 N10       29.96R
ORANGE*        FAIR      54  41  62 CALM      29.95R
GORDONSVILLE*  FAIR      57  41  54 CALM      29.94R
WARRENTON*     MOCLDY    53  39  59 N15G21    29.97R

$$

VAZ055>057-170000-
NORTH AND CENTRAL PIEDMONT

CITY           SKY/WX    TMP DP  RH WIND       PRES   REMARKS
FREDERICKSBRG* FAIR      56  44  63 NW6       29.93R
STAFFORD*      FAIR      55  44  68 N8        29.98R

$$

NCZ024-NYZ072-PAZ021-071-VAZ022-071-170000-
OTHER REGIONAL OBSERVATIONS

CITY           SKY/WX    TMP DP  RH WIND       PRES   REMARKS
NEW YORK CITY  FAIR      45  33  63 NW10G28   29.87R
PHILADELPHIA   CLOUDY    52  40  63 NW15      29.88R
PITTSBURGH     MOCLDY    32  24  72 NW16      30.15R WCI  21
ROANOKE        CLOUDY    54  41  61 NW17G25   30.03R
RICHMOND       LGT RAIN  56  53  90 N8        29.92R
RALEIGH        CLOUDY    63  52  67 N5        29.97R

$$

ANZ530>537-170000-
MARINE OBSERVATIONS

STATION/POSITION TIME  TEMP    WIND        PRES
                       AIR SEA DIR/SP/G
                 (UTC) (F)     (DEG/KT/KT) (MB)
THOMAS PT LIGHT  2300   54 38  330/ 11/ 19   N/A
BALT KEY BRIDGE  2248   52     290/ 17/ 20 1013.4R
COVE POINT       2248   51     350/ 16/ 19 1013.6R
LEWISETTA        2248   53 43  350/  8/ 12 1013.2R
SOLOMONS ISLAND  2248   54 40  330/  9/ 12 1012.7R
PINEY POINT      2248             CALM       N/A

$$





USA.gov is the U.S. government's official web portal to all federal, state and local government web resources and services.